Weather History for KGON - February, 2014

Change the Weather History Date:

Thursday, February 13, 2014

  Actual Average Record
Temperature  
Mean Temperature 32 °F -  
Max Temperature 37 °F 37 °F 52 °F (1966)
Min Temperature 26 °F 17 °F -9 °F (1967)
Degree Days  
Heating Degree Days 34    
Moisture  
Dew Point 32 °F    
Average Humidity 92    
Maximum Humidity 100    
Minimum Humidity 73    
Precipitation  
Precipitation 0.21 in - - ()
Sea Level Pressure  
Sea Level Pressure 29.67 in    
Wind  
Wind Speed 17 mph (NE)    
Max Wind Speed 30 mph    
Max Gust Speed 39 mph    
Visibility 3 miles    
Events Fog , Rain , Snow , Thunderstorm    
Averages and records for this station are not official NWS values.
T = Trace of Precipitation, MM = Missing Value Source: NWS Daily Summary

Daily Weather History Graph

Daily Weather History Graph

Search for Another Location

Airport or City:

Trip Planner

Search our weather history database for the weather conditions in past years. The results will help you decide how hot, cold, wet, or windy it might be!

Date:

Astronomy

Feb. 13, 2014 Rise Set
Actual Time 6:45 AM EST 5:19 PM EST
Civil Twilight 6:17 AM EST 5:48 PM EST
Nautical Twilight 5:44 AM EST 6:20 PM EST
Astronomical Twilight 5:12 AM EST 6:52 PM EST
Moon 4:25 PM EST (2/13) 5:37 AM EST (2/13)
Length of Visible Light 11h 30m
Length of Day
10h 33m
Waxing Gibbous, 98% of the Moon is Illuminated
Feb 13
Waxing Gibbous
Feb 14
Full
Feb 22
Last Quarter
Mar 1
New
Mar 8
First Quarter

Hourly Weather History & Observations

Time (EST) Temp. Windchill Dew Point Humidity Pressure Visibility Wind Dir Wind Speed Gust Speed Precip Events Conditions
12:56 AM 32.0 °F 22.5 °F 24.1 °F 73% 30.32 in 10.0 mi East 12.7 mph - N/A   Overcast
1:56 AM 32.0 °F 22.5 °F 25.0 °F 75% 30.30 in 10.0 mi ESE 12.7 mph 21.9 mph N/A   Overcast
2:30 AM 32.0 °F 21.2 °F 26.6 °F 80% 30.29 in 9.0 mi East 16.1 mph 20.7 mph N/A   Overcast
2:56 AM 28.9 °F 19.2 °F 24.1 °F 82% 30.27 in 2.5 mi NE 11.5 mph - 0.00 in Snow Light Snow
3:02 AM 28.4 °F 18.5 °F 24.8 °F 86% 30.27 in 1.8 mi NE 11.5 mph - 0.00 in Snow Light Snow
3:33 AM 26.6 °F 16.2 °F 24.8 °F 93% 30.25 in 2.0 mi NE 11.5 mph - 0.00 in Snow Light Snow
3:56 AM 27.0 °F 16.1 °F 25.0 °F 92% 30.24 in 2.0 mi NE 12.7 mph - 0.00 in Snow Light Snow
4:06 AM 26.6 °F 16.2 °F 24.8 °F 93% 30.23 in 1.8 mi NE 11.5 mph - 0.00 in Snow Light Snow
4:24 AM 28.4 °F 18.5 °F 24.8 °F 86% 30.23 in 2.0 mi NE 11.5 mph - 0.00 in Snow Light Snow
4:49 AM 28.4 °F 19.1 °F 24.8 °F 86% 30.23 in 2.0 mi ENE 10.4 mph - 0.00 in Snow Light Snow
4:56 AM 28.0 °F 17.5 °F 26.1 °F 92% 30.22 in 2.5 mi NE 12.7 mph - 0.00 in Snow Light Snow
5:04 AM 28.4 °F 18.0 °F 24.8 °F 86% 30.22 in 3.0 mi NE 12.7 mph - 0.00 in Snow Light Snow
5:30 AM 28.4 °F 18.0 °F 26.6 °F 93% 30.20 in 2.0 mi ENE 12.7 mph - 0.00 in Snow Light Snow
5:56 AM 28.0 °F 17.5 °F 26.1 °F 92% 30.18 in 2.0 mi ENE 12.7 mph - 0.00 in Snow Light Snow
6:06 AM 28.4 °F 16.6 °F 26.6 °F 93% 30.17 in 2.0 mi NE 16.1 mph 23.0 mph 0.00 in Snow Light Snow
6:23 AM 28.4 °F 17.0 °F 26.6 °F 93% 30.16 in 1.8 mi NE 15.0 mph - 0.00 in Snow Light Snow
6:35 AM 28.4 °F 16.6 °F 26.6 °F 93% 30.15 in 2.0 mi ENE 16.1 mph - 0.00 in Snow Light Snow
6:56 AM 28.9 °F 17.7 °F 27.0 °F 92% 30.13 in 1.8 mi ENE 15.0 mph - 0.00 in Snow Light Snow
7:07 AM 30.2 °F 18.9 °F 26.6 °F 86% 30.12 in 1.2 mi ENE 16.1 mph - 0.00 in Snow Light Snow
7:17 AM 30.2 °F 18.1 °F 26.6 °F 86% 30.12 in 0.8 mi ENE 18.4 mph - 0.00 in Snow Light Snow
7:33 AM 30.2 °F 17.8 °F 28.4 °F 93% 30.10 in 2.0 mi ENE 19.6 mph 27.6 mph 0.00 in Snow Light Snow
7:56 AM 30.9 °F 18.4 °F 28.0 °F 89% 30.08 in 2.0 mi ENE 20.7 mph 26.5 mph 0.00 in Snow Light Snow
8:32 AM 30.2 °F 17.1 °F 28.4 °F 93% 30.05 in 1.0 mi ENE 21.9 mph 28.8 mph 0.00 in Snow Light Snow
8:56 AM 30.9 °F 19.1 °F 30.0 °F 96% 30.03 in 1.0 mi ENE 18.4 mph - 0.00 in Snow Light Snow
9:56 AM 32.0 °F 19.8 °F 30.9 °F 96% 29.94 in 0.5 mi NE 20.7 mph - 0.00 in Fog , Snow Snow
10:23 AM 33.8 °F 21.9 °F 32.0 °F 93% 29.89 in 0.2 mi NE 21.9 mph 28.8 mph 0.00 in Fog , Snow Heavy Snow
10:33 AM 33.8 °F 21.9 °F 32.0 °F 93% 29.87 in 0.5 mi ENE 21.9 mph 33.4 mph 0.00 in Fog , Snow Snow
10:56 AM 33.1 °F 20.6 °F 32.0 °F 96% 29.83 in 1.5 mi ENE 23.0 mph 32.2 mph 0.01 in Snow Light Snow
11:56 AM 34.0 °F 22.1 °F 33.1 °F 96% 29.73 in 1.0 mi NE 21.9 mph 35.7 mph 0.12 in Rain Rain
12:03 PM 35.6 °F 23.4 °F 33.8 °F 93% 29.72 in 2.5 mi NE 25.3 mph 32.2 mph 0.00 in Rain Rain
12:20 PM 35.6 °F 23.2 °F 33.8 °F 93% 29.70 in 2.5 mi NE 26.5 mph 36.8 mph N/A Rain Rain
12:54 PM 35.6 °F 23.2 °F 33.8 °F 93% 29.62 in 2.5 mi NE 26.5 mph 38.0 mph N/A Rain Rain
12:56 PM 36.0 °F 23.9 °F 34.0 °F 93% 29.62 in 2.5 mi NE 25.3 mph 38.0 mph N/A Rain Rain
1:08 PM 37.4 °F 25.2 °F 33.8 °F 87% 29.60 in 1.8 mi NE 28.8 mph 36.8 mph 0.00 in Rain Rain
1:23 PM 37.4 °F 25.0 °F 35.6 °F 93% 29.57 in 1.5 mi NE 29.9 mph 39.1 mph N/A Rain Light Rain
1:39 PM 37.4 °F 25.9 °F 35.6 °F 93% 29.54 in 2.0 mi NNE 25.3 mph 36.8 mph N/A Rain Light Rain
1:47 PM 37.4 °F 25.9 °F 35.6 °F 93% 29.52 in 1.8 mi NNE 25.3 mph 38.0 mph N/A Rain Light Rain
1:56 PM 37.0 °F 25.4 °F 35.1 °F 93% 29.51 in 1.8 mi NNE 25.3 mph 38.0 mph N/A Snow Light Snow
2:27 PM 37.4 °F 26.6 °F 35.6 °F 93% 29.49 in 1.5 mi NE 21.9 mph 36.8 mph N/A Snow Light Snow
2:56 PM 37.0 °F 25.6 °F 36.0 °F 96% 29.46 in 2.0 mi NNE 24.2 mph 32.2 mph N/A Rain Light Rain
3:27 PM 37.4 °F 25.9 °F 35.6 °F 93% 29.41 in 3.0 mi NNE 25.3 mph 34.5 mph N/A Rain Light Rain
3:56 PM 37.9 °F 27.3 °F 36.0 °F 93% 29.39 in 3.0 mi NNE 21.9 mph 33.4 mph N/A Rain Light Rain
4:11 PM 37.4 °F 26.6 °F 35.6 °F 93% 29.37 in 3.0 mi NNE 21.9 mph 34.5 mph N/A   Overcast
4:27 PM 37.4 °F 27.2 °F 35.6 °F 93% 29.36 in 4.0 mi NNE 19.6 mph 36.8 mph N/A   Overcast
4:56 PM 37.9 °F 27.6 °F 35.1 °F 89% 29.33 in 6.0 mi NNE 20.7 mph 31.1 mph N/A   Overcast
5:10 PM 37.4 °F 27.5 °F 35.6 °F 93% 29.32 in 8.0 mi NNE 18.4 mph 29.9 mph N/A   Overcast
5:56 PM 37.9 °F 27.9 °F 35.1 °F 89% 29.31 in 10.0 mi NNE 19.6 mph 29.9 mph N/A   Overcast
6:09 PM 37.4 °F 26.4 °F 35.6 °F 93% 29.29 in 8.0 mi NNE 23.0 mph 29.9 mph N/A   Overcast
6:56 PM 37.9 °F 27.1 °F 35.1 °F 89% 29.26 in 9.0 mi NNE 23.0 mph 32.2 mph N/A   Overcast
7:56 PM 37.0 °F 26.4 °F 35.1 °F 93% 29.18 in 7.0 mi NNE 20.7 mph 34.5 mph N/A   Overcast
8:56 PM 36.0 °F 24.4 °F 34.0 °F 93% 29.11 in 3.0 mi NNE 23.0 mph 29.9 mph N/A Rain Light Rain
9:27 PM 35.6 °F 24.0 °F 35.6 °F 100% 29.07 in 2.0 mi NNE 23.0 mph 29.9 mph N/A Snow Light Snow
9:40 PM 35.6 °F 24.5 °F 35.6 °F 100% 29.05 in 3.0 mi NNE 20.7 mph 31.1 mph N/A Rain , Thunderstorm Rain
9:45 PM 35.6 °F 24.8 °F 35.6 °F 100% 29.05 in 2.5 mi NNE 19.6 mph 29.9 mph N/A Rain , Thunderstorm Rain
9:52 PM 35.6 °F 23.7 °F 35.6 °F 100% 29.04 in 2.0 mi NNE 24.2 mph 32.2 mph N/A Rain , Thunderstorm Rain
9:56 PM 36.0 °F 23.9 °F 35.1 °F 97% 29.03 in 2.5 mi NNE 25.3 mph 33.4 mph N/A Rain Light Rain
9:58 PM 35.6 °F 23.2 °F 35.6 °F 100% 29.03 in 2.5 mi NNE 26.5 mph 33.4 mph 0.00 in Rain Light Rain
10:01 PM 35.6 °F 24.0 °F 35.6 °F 100% 29.02 in 3.0 mi NNE 23.0 mph 33.4 mph 0.00 in Rain Rain
10:56 PM 36.0 °F 27.1 °F 36.0 °F 100% 29.00 in 7.0 mi NNE 13.8 mph 27.6 mph 0.00 in Rain Light Rain
11:07 PM 35.6 °F 28.0 °F 35.6 °F 100% 29.02 in 2.0 mi North 10.4 mph 21.9 mph 0.05 in Rain Heavy Rain
11:21 PM 35.6 °F 31.7 °F 35.6 °F 100% 29.04 in 3.0 mi Variable 4.6 mph - 0.06 in Rain Rain
11:38 PM 35.6 °F 29.2 °F 35.6 °F 100% 29.05 in 3.0 mi WNW 8.1 mph - 0.08 in Rain Light Rain
11:54 PM 35.6 °F 25.9 °F 33.8 °F 93% 28.95 in 5.0 mi North 16.1 mph 26.5 mph 0.08 in Rain Light Rain
11:56 PM 35.1 °F 27.4 °F 35.1 °F 100% 28.97 in 5.0 mi North 10.4 mph 26.5 mph 0.08 in Rain Light Rain